| time (UTC) | temp F | wind direction | speed knots | gust knots | rain 1hr in | rain 24hr in | rain mn in | humidity % | barometer mb |
| 20260505152520 | 78 | 188 | 1.7 | 2.6 | 0.00 | 0.00 | 0.00 | 43 | 993.8 |
| 20260505151547 | 76 | 182 | 1.7 | 3.5 | 0.00 | 0.00 | 0.00 | 47 | 993.9 |
| 20260505150525 | 75 | 135 | 2.6 | 5.2 | 0.00 | 0.00 | 0.00 | 49 | 993.7 |
| 20260505140525 | 73 | 316 | 0.0 | 1.7 | 0.00 | 0.00 | 0.00 | 51 | 994.0 |
| 20260505124525 | 62 | 148 | 0.9 | 2.6 | 0.00 | 0.00 | 0.00 | 68 | 993.5 |
| 20260505123525 | 60 | 183 | 0.0 | 1.7 | 0.00 | 0.00 | 0.00 | 74 | 993.4 |
| 20260505122521 | 58 | 0.0 | 0.0 | 0.00 | 0.00 | 0.00 | 79 | 993.4 | |
| 20260505121524 | 58 | 158 | 0.0 | 0.9 | 0.00 | 0.00 | 0.00 | 79 | 993.2 |
| 20260505120525 | 58 | 150 | 0.0 | 1.7 | 0.00 | 0.00 | 0.00 | 79 | 993.1 |
| 20260505115524 | 56 | 0.0 | 0.0 | 0.00 | 0.00 | 0.00 | 82 | 993.0 | |
| 20260505114545 | 55 | 0.0 | 0.0 | 0.00 | 0.00 | 0.00 | 83 | 993.1 | |
| 20260505113526 | 53 | 0.0 | 0.0 | 0.00 | 0.00 | 0.00 | 87 | 992.9 | |
| 20260505112526 | 52 | 0.0 | 0.0 | 0.00 | 0.00 | 0.00 | 89 | 992.7 | |
| 20260505111524 | 50 | 0.0 | 0.0 | 0.00 | 0.00 | 0.00 | 89 | 992.5 | |
| 20260505110520 | 50 | 0.0 | 0.0 | 0.00 | 0.00 | 0.00 | 88 | 992.4 | |
| 20260505101521 | 52 | 0.0 | 0.9 | 0.00 | 0.00 | 0.00 | 83 | 992.2 | |
| 20260505100524 | 52 | 151 | 0.0 | 1.7 | 0.00 | 0.00 | 0.00 | 81 | 992.1 |
| 20260505095530 | 52 | 139 | 0.9 | 1.7 | 0.00 | 0.00 | 0.00 | 82 | 992.4 |
| 20260505094545 | 52 | 141 | 0.0 | 1.7 | 0.00 | 0.00 | 0.00 | 82 | 992.5 |
| 20260505093524 | 52 | 0.0 | 0.0 | 0.00 | 0.00 | 0.00 | 83 | 992.5 | |
| 20260505092545 | 51 | 0.0 | 0.0 | 0.00 | 0.00 | 0.00 | 83 | 992.2 | |
| 20260505091519 | 51 | 0.0 | 0.0 | 0.00 | 0.00 | 0.00 | 83 | 992.1 | |
| 20260505090524 | 52 | 0.0 | 0.0 | 0.00 | 0.00 | 0.00 | 83 | 992.2 | |
| 20260505085527 | 52 | 0.0 | 0.0 | 0.00 | 0.00 | 0.00 | 83 | 992.4 | |
| 20260505084525 | 52 | 0.0 | 0.0 | 0.00 | 0.00 | 0.00 | 83 | 992.5 | |
| 20260505083524 | 52 | 305 | 0.0 | 1.7 | 0.00 | 0.00 | 0.00 | 83 | 992.5 |
| 20260505082520 | 52 | 278 | 0.0 | 0.9 | 0.00 | 0.00 | 0.00 | 84 | 992.4 |
| 20260505081540 | 52 | 0.0 | 0.9 | 0.00 | 0.00 | 0.00 | 85 | 992.4 | |
| 20260505080529 | 52 | 0.0 | 0.0 | 0.00 | 0.00 | 0.00 | 85 | 992.4 | |
| 20260505075525 | 52 | 0.0 | 0.0 | 0.00 | 0.00 | 0.00 | 83 | 992.4 | |
| 20260505074544 | 52 | 0.0 | 0.0 | 0.00 | 0.00 | 0.00 | 83 | 992.3 | |
| 20260505073524 | 52 | 0.0 | 0.0 | 0.00 | 0.00 | 0.00 | 82 | 992.4 | |
| 20260505072524 | 52 | 0.0 | 0.0 | 0.00 | 0.00 | 0.00 | 81 | 992.5 | |
| 20260505071528 | 53 | 0.0 | 0.0 | 0.00 | 0.00 | 0.00 | 81 | 992.6 | |
| 20260505070525 | 53 | 0.0 | 0.0 | 0.00 | 0.00 | 0.00 | 81 | 992.5 | |
| 20260505065525 | 53 | 0.0 | 0.0 | 0.00 | 0.00 | 0.00 | 79 | 992.5 | |
| 20260505064524 | 53 | 0.0 | 0.0 | 0.00 | 0.00 | 0.00 | 79 | 992.4 | |
| 20260505063524 | 54 | 255 | 0.0 | 0.9 | 0.00 | 0.00 | 0.00 | 79 | 992.4 |
| 20260505062525 | 54 | 153 | 0.0 | 1.7 | 0.00 | 0.00 | 0.00 | 78 | 992.5 |
| 20260505061547 | 55 | 0.0 | 0.0 | 0.00 | 0.00 | 0.00 | 76 | 992.5 | |
| 20260505060524 | 56 | 0.0 | 0.9 | 0.00 | 0.00 | 0.00 | 74 | 992.5 | |
| 20260505055545 | 57 | 0.0 | 0.0 | 0.00 | 0.00 | 0.00 | 72 | 992.6 | |
| 20260505054526 | 57 | 0.0 | 0.0 | 0.00 | 0.00 | 0.00 | 69 | 992.6 | |
| 20260505053544 | 57 | 0.0 | 0.0 | 0.00 | 0.00 | 0.00 | 69 | 992.7 | |
| 20260505052527 | 57 | 135 | 0.0 | 1.7 | 0.00 | 0.00 | 0.00 | 70 | 992.7 |
| 20260505051520 | 57 | 0.0 | 0.9 | 0.00 | 0.00 | 0.00 | 70 | 992.7 | |
| 20260505050524 | 57 | 0.0 | 0.0 | 0.00 | 0.00 | 0.00 | 71 | 992.7 | |
| 20260505041526 | 58 | 0.0 | 0.0 | 0.00 | 0.00 | 0.00 | 65 | 992.6 | |
| 20260505040525 | 59 | 0.0 | 0.0 | 0.00 | 0.00 | 0.00 | 63 | 992.5 | |
| 20260505035525 | 60 | 0.0 | 0.0 | 0.00 | 0.00 | 0.00 | 60 | 992.5 | |
| 20260505034524 | 61 | 0.0 | 0.0 | 0.00 | 0.00 | 0.00 | 59 | 992.6 | |
| 20260505033530 | 61 | 0.0 | 0.0 | 0.00 | 0.00 | 0.00 | 59 | 992.7 | |
| 20260505032526 | 61 | 0.0 | 0.0 | 0.00 | 0.00 | 0.00 | 59 | 992.8 | |
| 20260505031524 | 61 | 140 | 0.0 | 1.7 | 0.00 | 0.00 | 0.00 | 59 | 992.7 |
| 20260505030520 | 62 | 127 | 0.0 | 0.9 | 0.00 | 0.00 | 0.00 | 59 | 992.7 |
| 20260505025525 | 62 | 154 | 0.0 | 0.9 | 0.00 | 0.00 | 0.00 | 58 | 992.7 |
| 20260505024530 | 62 | 274 | 0.0 | 1.7 | 0.00 | 0.00 | 0.00 | 58 | 992.6 |
| 20260505023526 | 63 | 149 | 0.9 | 2.6 | 0.00 | 0.00 | 0.00 | 57 | 992.5 |
| 20260505022525 | 63 | 0.0 | 0.0 | 0.00 | 0.00 | 0.00 | 56 | 992.5 | |
| 20260505021521 | 64 | 218 | 0.0 | 0.9 | 0.00 | 0.00 | 0.00 | 55 | 992.3 |
| 20260505020539 | 64 | 0.0 | 0.0 | 0.00 | 0.00 | 0.00 | 54 | 992.3 | |
| 20260505015545 | 65 | 0.0 | 0.0 | 0.00 | 0.00 | 0.00 | 54 | 992.2 | |
| 20260505014526 | 65 | 0.0 | 0.0 | 0.00 | 0.00 | 0.00 | 53 | 992.1 | |
| 20260505013524 | 66 | 0.0 | 0.0 | 0.00 | 0.00 | 0.00 | 53 | 992.0 | |
| 20260505012524 | 67 | 0.0 | 0.0 | 0.00 | 0.00 | 0.00 | 52 | 991.9 | |
| 20260505011520 | 68 | 175 | 0.0 | 2.6 | 0.00 | 0.00 | 0.00 | 50 | 991.9 |
| 20260505010524 | 68 | 201 | 0.0 | 0.9 | 0.00 | 0.00 | 0.00 | 49 | 991.8 |
| 20260505005530 | 70 | 176 | 0.0 | 1.7 | 0.00 | 0.00 | 0.00 | 49 | 991.8 |
| 20260505004545 | 71 | 150 | 0.0 | 1.7 | 0.00 | 0.00 | 0.00 | 46 | 991.7 |
| 20260505003525 | 72 | 156 | 0.9 | 1.7 | 0.00 | 0.00 | 0.00 | 44 | 991.6 |
| 20260505002525 | 74 | 209 | 0.0 | 1.7 | 0.00 | 0.00 | 0.00 | 41 | 991.5 |
| 20260505001525 | 75 | 215 | 0.9 | 1.7 | 0.00 | 0.00 | 0.00 | 40 | 991.5 |
| 20260505000524 | 76 | 228 | 0.9 | 3.5 | 0.00 | 0.00 | 0.00 | 38 | 991.5 |
| 20260504235526 | 78 | 195 | 0.9 | 3.5 | 0.00 | 0.00 | 0.00 | 36 | 991.5 |
| 20260504234526 | 79 | 223 | 1.7 | 3.5 | 0.00 | 0.00 | 0.00 | 34 | 991.4 |
| 20260504233607 | 79 | 222 | 2.6 | 6.1 | 0.00 | 0.00 | 0.00 | 33 | 991.4 |
| 20260504232519 | 80 | 220 | 1.7 | 4.3 | 0.00 | 0.00 | 0.00 | 34 | 991.4 |
| 20260504231521 | 80 | 223 | 1.7 | 6.1 | 0.00 | 0.00 | 0.00 | 34 | 991.4 |
| 20260504230527 | 80 | 194 | 1.7 | 3.5 | 0.00 | 0.00 | 0.00 | 34 | 991.3 |
| 20260504225524 | 80 | 191 | 2.6 | 4.3 | 0.00 | 0.00 | 0.00 | 33 | 991.4 |
| 20260504224525 | 81 | 221 | 2.6 | 7.0 | 0.00 | 0.00 | 0.00 | 32 | 991.5 |
| 20260504223526 | 80 | 227 | 4.3 | 7.8 | 0.00 | 0.00 | 0.00 | 31 | 991.5 |
| 20260504222524 | 81 | 198 | 3.5 | 6.1 | 0.00 | 0.00 | 0.00 | 32 | 991.5 |
| 20260504221528 | 82 | 208 | 4.3 | 7.8 | 0.00 | 0.00 | 0.00 | 32 | 991.4 |
| 20260504220520 | 82 | 210 | 2.6 | 7.0 | 0.00 | 0.00 | 0.00 | 32 | 991.5 |
| 20260504215544 | 82 | 232 | 3.5 | 7.0 | 0.00 | 0.00 | 0.00 | 33 | 991.4 |
| 20260504214524 | 81 | 218 | 4.3 | 9.6 | 0.00 | 0.00 | 0.00 | 34 | 991.4 |
| 20260504213525 | 83 | 216 | 3.5 | 7.0 | 0.00 | 0.00 | 0.00 | 32 | 991.5 |
| 20260504212525 | 84 | 200 | 2.6 | 5.2 | 0.00 | 0.00 | 0.00 | 32 | 991.4 |
| 20260504211526 | 83 | 186 | 2.6 | 6.1 | 0.00 | 0.00 | 0.00 | 32 | 991.4 |
| 20260504210526 | 82 | 132 | 3.5 | 6.1 | 0.00 | 0.00 | 0.00 | 31 | 991.4 |
| 20260504205525 | 84 | 195 | 3.5 | 6.1 | 0.00 | 0.00 | 0.00 | 30 | 991.5 |
| 20260504204531 | 83 | 177 | 2.6 | 5.2 | 0.00 | 0.00 | 0.00 | 33 | 991.6 |
| 20260504203525 | 82 | 264 | 3.5 | 6.1 | 0.00 | 0.00 | 0.00 | 33 | 991.7 |
| 20260504202530 | 81 | 249 | 2.6 | 6.1 | 0.00 | 0.00 | 0.00 | 33 | 991.8 |
| 20260504201524 | 82 | 218 | 3.5 | 7.0 | 0.00 | 0.00 | 0.00 | 31 | 992.0 |
| 20260504200525 | 83 | 214 | 1.7 | 4.3 | 0.00 | 0.00 | 0.00 | 30 | 992.1 |
| 20260504195546 | 83 | 218 | 1.7 | 3.5 | 0.00 | 0.00 | 0.00 | 32 | 992.2 |
| 20260504194525 | 83 | 141 | 1.7 | 4.3 | 0.00 | 0.00 | 0.00 | 31 | 992.4 |
| 20260504193530 | 83 | 216 | 1.7 | 4.3 | 0.00 | 0.00 | 0.00 | 32 | 992.6 |
| 20260504192525 | 82 | 234 | 2.6 | 5.2 | 0.00 | 0.00 | 0.00 | 34 | 992.8 |
| 20260504191548 | 82 | 304 | 2.6 | 5.2 | 0.00 | 0.00 | 0.00 | 33 | 992.9 |
| 20260504190543 | 83 | 171 | 1.7 | 3.5 | 0.00 | 0.00 | 0.00 | 31 | 993.1 |
| 20260504185525 | 83 | 231 | 1.7 | 3.5 | 0.00 | 0.00 | 0.00 | 34 | 993.2 |
| 20260504184525 | 81 | 41 | 1.7 | 4.3 | 0.00 | 0.00 | 0.00 | 35 | 993.4 |
| 20260504183522 | 81 | 179 | 2.6 | 4.3 | 0.00 | 0.00 | 0.00 | 36 | 993.5 |
| 20260504182525 | 82 | 205 | 1.7 | 4.3 | 0.00 | 0.00 | 0.00 | 35 | 993.6 |
| 20260504181524 | 80 | 187 | 1.7 | 2.6 | 0.00 | 0.00 | 0.00 | 37 | 993.6 |
| 20260504180521 | 79 | 206 | 1.7 | 3.5 | 0.00 | 0.00 | 0.00 | 36 | 993.9 |
| 20260504175525 | 79 | 164 | 2.6 | 5.2 | 0.00 | 0.00 | 0.00 | 37 | 994.0 |
| 20260504174552 | 79 | 342 | 2.6 | 5.2 | 0.00 | 0.00 | 0.00 | 36 | 994.0 |
| 20260504173545 | 78 | 262 | 3.5 | 6.1 | 0.00 | 0.00 | 0.00 | 37 | 994.3 |
| 20260504172525 | 79 | 306 | 3.5 | 6.1 | 0.00 | 0.00 | 0.00 | 38 | 994.4 |
| 20260504171525 | 79 | 239 | 1.7 | 5.2 | 0.00 | 0.00 | 0.00 | 37 | 994.5 |
| 20260504170522 | 77 | 141 | 1.7 | 3.5 | 0.00 | 0.00 | 0.00 | 37 | 994.8 |